This is the latest recevied weather packets stored in our database for station/object KD4WXI. If no packets are shown the sender has not sent any weather packets the latest 10 day(s).
| Time | Temp. | Humidity | Pressure | Rain* | Wind** | Luminosity | Snow |
|---|---|---|---|---|---|---|---|
| 1777597369 | 13.89° C | 68% | 1012.3 hPa | 0 mm | - | 0 W/m² | - |
| 1777597065 | 14.44° C | 63% | 1012.1 hPa | 0 mm | - | 0 W/m² | - |
| 1777596762 | 15° C | 61% | 1012.2 hPa | 0 mm | - | 0 W/m² | - |
| 1777596457 | 15.56° C | 66% | 1012.1 hPa | 0 mm | - | 0 W/m² | - |
| 1777596155 | 15° C | 48% | 1012.1 hPa | 0 mm | - | 0 W/m² | - |
| 1777595852 | 14.44° C | 52% | 1011.9 hPa | 0 mm | - | 0 W/m² | - |
| 1777595547 | 15° C | 54% | 1012 hPa | 0 mm | - | 0 W/m² | - |
| 1777595243 | 15.56° C | 57% | 1011.8 hPa | 0 mm | - | 0 W/m² | - |
| 1777594939 | 16.11° C | 57% | 1011.6 hPa | 0 mm | - | 0 W/m² | - |
| 1777594636 | 16.67° C | 51% | 1011.7 hPa | 0 mm | - | 1 W/m² | - |
| 1777594333 | 17.78° C | 46% | 1011.7 hPa | 0 mm | - | 1 W/m² | - |
| 1777594029 | 17.78° C | 45% | 1011.5 hPa | 0 mm | - | 2 W/m² | - |
| 1777593724 | 17.78° C | 43% | 1011.4 hPa | 0 mm | - | 4 W/m² | - |
| 1777593420 | 18.33° C | 42% | 1011.2 hPa | 0 mm | - | 5 W/m² | - |
| 1777593119 | 18.89° C | 44% | 1011.3 hPa | 0 mm | - | 7 W/m² | - |
| 1777592818 | 18.89° C | 43% | 1011.3 hPa | 0 mm | - | 9 W/m² | - |
| 1777592515 | 19.44° C | 41% | 1011 hPa | 0 mm | - | 12 W/m² | - |
| 1777592210 | 18.89° C | 42% | 1011 hPa | 0 mm | - | 18 W/m² | - |
| 1777591907 | 18.89° C | 41% | 1010.9 hPa | 0 mm | - | 21 W/m² | - |
| 1777591603 | 19.44° C | 45% | 1010.9 hPa | 0 mm | - | 22 W/m² | - |
| 1777591299 | 19.44° C | 44% | 1010.9 hPa | 0 mm | - | 26 W/m² | - |
| 1777590996 | 19.44° C | 45% | 1010.9 hPa | 0 mm | - | 26 W/m² | - |
| 1777590691 | 19.44° C | 44% | 1010.7 hPa | 0 mm | - | 28 W/m² | - |
| 1777590387 | 20° C | 42% | 1010.5 hPa | 0 mm | - | 31 W/m² | - |
| 1777590085 | 20° C | 42% | 1010.6 hPa | 0 mm | - | 34 W/m² | - |
* Rain latest hour (hover to see other rain measurements)
** Current wind speed in m/s (hover to see current wind gust speed)